SES-12

Last updated on Sat Jul 05 2025 00:02:47 GMT+0000 (Coordinated Universal Time)

1 43488U 18049A 25185.03045892 -.00000257 00000+0 00000+0 0 9994 2 43488 0.0125 21.3719 0000432 275.0938 91.7855 1.00271135 25926
UTC large
Height (km)
Speed (km/s)
/
Latitude / Longitude
Inclination (degrees)
Orbital Period (minutes)
Azimuth
Elevation
Range (km)
Doppler Factor

Next 0 passes for location: London (51.5072 / 0.1276)

Sorry there are no passes over London.